Location: Hoyos del Collado
(40.3594°N, 5.2003°W)
Time: 04:24:03
(UTC+00:00)

Cosmos 540 Rocket - Visible Passes

Search period start: 25 July 2024 00:00
Search period end: 04 August 2024 00:00
Orbit: 738 x 750 km, 74.1° (Epoch: 24 July)

Date Brightness Start Highest point End Pass type
(mag) Time Alt. Az. Time Alt. Az. Time Alt. Az.
25 Jul 3.6 03:08:03 30° S 03:10:33 68° ESE 03:15:40 10° NNE visible
26 Jul 4.7 02:24:52 27° SE 02:26:26 33° E 02:30:59 10° NE visible
26 Jul 4.6 04:04:38 15° WSW 04:07:56 29° WNW 04:12:24 10° N visible
27 Jul 5.5 01:41:37 16° ESE 01:42:28 16° E 01:45:32 10° ENE visible
27 Jul 3.7 03:21:23 33° SW 03:23:28 56° WNW 03:28:31 10° N visible
28 Jul 3.5 02:38:06 55° SSE 02:39:09 72° ESE 02:44:17 10° NNE visible
28 Jul 5.4 04:18:21 10° W 04:21:14 15° NW 04:24:08 10° NNW visible
29 Jul 4.5 01:54:48 34° ESE 01:55:00 34° E 01:59:37 10° NE visible
29 Jul 4.7 03:34:33 21° W 03:36:33 28° WNW 03:40:56 10° N visible
30 Jul 5.5 01:11:27 17° E 01:11:27 17° E 01:14:15 10° ENE visible
30 Jul 3.7 02:51:13 48° WSW 02:52:03 54° WNW 02:57:05 10° N visible
31 Jul 3.4 02:07:51 75° E 02:07:51 75° E 02:12:51 10° NNE visible
31 Jul 5.5 03:47:36 11° W 03:49:52 14° NW 03:52:34 10° NNW visible
01 Aug 4.7 01:24:27 34° E 01:24:27 34° E 01:28:14 10° NE visible
01 Aug 4.7 03:04:12 25° W 03:05:08 26° WNW 03:09:27 10° N visible
02 Aug 5.7 00:41:01 16° ENE 00:41:01 16° ENE 00:42:56 10° NE visible
02 Aug 3.8 02:20:46 51° WNW 02:20:46 51° WNW 02:25:38 10° N visible
03 Aug 3.9 01:37:19 57° NE 01:37:19 57° NE 01:41:25 10° NNE visible
03 Aug 5.5 03:17:04 12° WNW 03:18:27 14° NW 03:20:59 10° NNW visible
